{"data":{"norad_id":82893,"epoch":"2026-09-16T07:37:29.251488Z","epoch_age_seconds":387119,"freshness":"STALE","line1":"1 82893U          26259.31769967  .00005581  00000+0  19433-2 0  9992","line2":"2 82893  98.9679  29.4430 0020973 308.8764  51.0549 14.35686517463754","mean_motion":14.35686517,"eccentricity":0.0020973,"inclination_deg":98.9679,"raan_deg":29.443,"arg_perigee_deg":308.8764,"mean_anomaly_deg":51.0549,"bstar":0.0019433,"rev_number":46375,"period_min":100.30044741306,"perigee_km":757.78823451527,"apogee_km":787.78349556497,"semimajor_km":7150.9228650401,"source":"CELESTRAK","updated_at":"2026-09-20T09:00:32.440816Z"}}